weather.gov     
National Weather Service

Regional Weather Roundup
NWS Homepage
This page is being discontinued on March 12, 2014.
The same data is available at this site. Please update your bookmarks.
Thank you, and we apologize for the inconvenience.
Please send an email to SR-SRH.Webmaster@noaa.gov with any concerns.


Current Version
Previous Version:    01  02  03  04  05  06  07  08  09  10  11  12  13  14  15  16  17  18  19  20  21  22  23  24  25  26  27  28  29  30  
   31  32  33  34  35  36  37  38  39  40  41  42  43  44  45  46  47  48  49  50  51  52  53  54  55  56  57  58  59  60  
[Printable]
259
ASUS46 KPDT 242125
RWRPDT
PENDLETON REGIONAL WEATHER ROUNDUP
NATIONAL WEATHER SERVICE PENDLETON OREGON
200 PM PDT FRI OCT 24 2014

NOTE: FAIR INDICATES FEW OR NO CLOUDS BELOW 12,000 FEET WITH NO
SIGNIFICANT WEATHER AND/OR OBSTRUCTIONS TO VISIBILITY.

# INDICATES UNOFFICIAL STATION AND DATA

WAZ520-242210-
EAST SLOPES OF WASHINGTON CASCADES

CITY            SKY/WX      TMP DP  RH  WIND    PRES   REMARKS
#BULLFROG 2SW   N/A         65  45  48  CALM    29.65R
#BUMPING DAM    N/A         42  N/A N/A N7      N/A
#CLE ELUM HS    N/A         49  41  74  CALM    29.98F
#CLE ELUM 2NW   N/A         48  41  77  NE1     N/A
#CLE ELUM LAKE  N/A         46  43  89  CALM    30.01F
#CLIFFDEL 2NW   N/A         45  42  89  CALM    N/A
#GLENWOOD       N/A         50  48  93  CALM    29.99F
#MANASTASH CYN  N/A         47  39  74  CALM    29.98F
#NELSON         N/A         48  44  86  CALM    30.06F
#NELSON 3SW     N/A         44  41  89  CALM    30.26F
#NILE           N/A         48  40  74  CALM    29.30F
#RONALD 2NW     N/A         46  44  93  CALM    29.87F
#SNOWDEN        N/A         49  39  68  CALM    N/A
#TEANAWAY 4NE   N/A         49  45  86  SW1     N/A
#TROUT LAKE 1NE N/A         49  47  93  CALM    29.98F
$$

WAZ521-242210-
SIMCOE HIGHLANDS

CITY            SKY/WX      TMP DP  RH  WIND    PRES   REMARKS
#BICKLETON HS   N/A         50  32  50  E6      30.09F
#CENTERVILLE 4W N/A         54  45  71  SE5     29.73F
#CENTERVILLE 1SWN/A         53  42  66  E6      29.96F
#GOLDENDALE     N/A         55  42  61  E6      N/A
#GOLDENDALE 1NE N/A         56  36  47  E6      N/A
#GOLDENDALE 1S  N/A         55  45  69  E6      29.95F
#GOLDENDALE 5WNWN/A         53  48  83  CALM    29.97F
#GOODNOE HILLS  N/A         55  47  74  E3      29.93F
#LYLE 6NE       N/A         50  46  86  CALM    29.96F
$$

WAZ026-242210-
KITTITAS VALLEY

CITY            SKY/WX      TMP DP  RH  WIND    PRES   REMARKS
ELLENSBURG AP   CLOUDY      51  41  68  CALM    30.03F
#ELLENSBURG CWU N/A         49  41  74  CALM    30.00F
#ELLENSBURG 3NE N/A         48  43  83  CALM    30.03F
#ELLENSBURG     N/A         53  46  77  CALM    N/A
#KITTITAS 3S    N/A         48  43  83  CALM    30.03F
#THORP 6N       N/A         49  42  77  SE3     30.07F
$$

WAZ027-242210-
YAKIMA VALLEY

CITY            SKY/WX      TMP DP  RH  WIND    PRES   REMARKS
SUNNYSIDE AP    CLOUDY      52  45  77  CALM    30.02F
YAKIMA AIRPORT  CLOUDY      54  40  59  W3      30.03F
YAKIMA-VAGABOND CLOUDY      52  42  69  VRB1    30.03F
#COWICHE 1N     N/A         50  42  74  CALM    30.16F
#DONALD 2NE     N/A         55  43  64  CALM    30.34F
#GRANDVIEW      N/A         54  43  66  CALM    30.03F
#MABTON         N/A         54  44  69  CALM    30.02F
#MOXEE 2E       N/A         52  32  46  CALM    29.94F
#NACHES 2SW     N/A         51  43  74  CALM    30.04F
#OUTLOOK DOT    N/A         N/A N/A N/A W5      N/A
#SELAH 8E       N/A         53  41  64  N5      N/A
#TERRACE HTS    N/A         53  43  69  CALM    30.00F
#TOPPENISH      N/A         54  43  66  NW2     29.95F
#WAPATO 4NE     N/A         55  43  64  CALM    30.34F
#WEST VALLEY    N/A         52  41  66  CALM    30.02F
#W YAKIMA       N/A         52  43  71  NW1     30.02F
#WHITE SWAN 5E  N/A         55  43  64  CALM    30.03F
#WILEY CITY 3W  N/A         51  37  59  CALM    29.96S
$$

WAZ028-242210-
LOWER COLUMBIA BASIN...WASHINGTON

CITY            SKY/WX      TMP DP  RH  WIND    PRES   REMARKS
HANFORD         CLOUDY      55  41  59  N5      30.06F
PASCO           CLOUDY      59  48  67  N6      30.03F
PROSSER AWOS    N/A         55  45  69  W5      30.04F
#BASIN CITY 5SW N/A         56  49  77  N5      30.03F
#BENTON CITY    N/A         56  43  62  NE9     29.93F
#CONNELL 5N     N/A         57  45  64  NE1     30.03F
#CONNELL 5NW    N/A         56  46  69  CALM    29.99F
#ELTOPIA        N/A         60  48  64  N2      29.98F
#ELTOPIA 6NW    N/A         55  49  80  N7      29.00F
#KENNEWICK      N/A         65  45  48  CALM    29.65R
#KENNEWICK 3S   N/A         56  46  69  CALM    30.03F
#PATERSON       N/A         59  49  69  NE7     29.98F
#PROSSER        N/A         54  42  64  CALM    30.02F
#SAGEMOOR 2W    N/A         58  47  67  CALM    29.87F
#TOUCHET 2S     N/A         58  52  80  CALM    29.99F
#WEST PASCO     N/A         59  48  67  NW1     30.04F
$$

WAZ029-242210-
FOOTHILLS OF THE BLUES...WASHINGTON

CITY            SKY/WX      TMP DP  RH  WIND    PRES   REMARKS
WALLA WALLA AP  LGT RAIN    61  47  60  N6      30.01F
#LOWDEN 2SE     N/A         57  51  80  W1      29.97F
#PLEASANT VIEW 1N/A         55  47  74  N3      30.07F
#PRESCOTT       N/A         60  49  67  NE6     30.00F
#WHITMAN COLLEGEN/A         60  48  64  N2      30.05F
#WAITSBURG 8N   N/A         56  36  47  N6      29.97F
#WALLA WALLA 5E N/A         59  45  60  CALM    N/A
#WALLA WALLA U  N/A         61  48  62  CALM    30.00F
#WHITMAN MISSIONN/A         57  52  83  W1      30.01F
$$

WAZ030-242210-
BLUE MOUNTAINS...WASHINGTON

CITY            SKY/WX      TMP DP  RH  WIND    PRES   REMARKS
$$

ORZ009-041-WAZ024-242210-
COLUMBIA RIVER GORGE

CITY            SKY/WX      TMP DP  RH  WIND    PRES   REMARKS
HOOD RIVER AP   CLOUDY      52  48  86  CALM    29.99F
THE DALLES AP   CLOUDY      54  46  74  CALM    29.99F
#ARLINGTON AIRPON/A         54  48  80  E3      29.99S
#ARLINGTON HS   N/A         57  48  72  CALM    29.91F
#CELILO DOT     N/A         55  46  72  W1      N/A
#LYLE           N/A         54  50  86  CALM    30.01F
#MARYHILL 2W    N/A         52  52  100 CALM    N/A
#MOSIER 1S      N/A         51  46  83  CALM    N/A
#MURDOCK        N/A         55  49  80  E1      30.01F
#RUFUS DOT      N/A         N/A N/A N/A E1      N/A

$$

ORZ510-242210-
NORTH CENTRAL OREGON

CITY            SKY/WX      TMP DP  RH  WIND    PRES   REMARKS
#CHENOWITH 1W   N/A         49  44  83  E2      N/A
#COW CYN RST AREN/A         48  47  96  NE2     N/A
#DUFUR 9E       N/A         48  43  83  E9      30.03F
#GRASS VALLEY   N/A         47  46  96  N2      N/A
#GRASS VALLEY 1SN/A         48  43  83  E7      30.02F
#KENT DOT       N/A         49  41  74  NE5     N/A
#MAUPIN SCHOOL  N/A         51  46  83  CALM    28.87F
#MORO SCHOOL    N/A         50  47  89  NE1     30.00F
#SHANIKO 5WSW   N/A         47  40  76  NE6     N/A
#SHANIKO 4NW    N/A         47  45  93  E6      29.97F
#TYGH VALLEY 2NEN/A         50  44  80  CALM    29.98F
#WAPANITIA AIRPON/A         48  44  86  CALM    30.00F
#WASCO DOT      N/A         54  44  69  E6      N/A
#WASCO 5NE      N/A         52  46  80  E2      30.00F
$$

ORZ511-242210-
CENTRAL OREGON

CITY            SKY/WX      TMP DP  RH  WIND    PRES   REMARKS
BEND AIRPORT    MOCLDY      50  46  86  CALM    29.95F
MADRAS AIRPORT  LGT RAIN    46  45  96  N3      29.99F
PRINEVILLE AP   CLOUDY      50  46  86  E3      29.95F
REDMOND AIRPORT CLOUDY      50  46  86  CALM    29.95F
#BEND 6E        N/A         49  45  86  CALM    29.88F
#BEND 1SW       N/A         47  45  93  S2      N/A
#BEND-KIM LN    N/A         50  49  96  CALM    29.92F
#CROOKED RVR RANN/A         46  44  93  S14     29.93F WCI 40
#CULVER         N/A         46  43  89  NW1     29.93F
#LAKE BILLY CHINN/A         46  41  83  CALM    30.03F
#POWELL BUTTE 3EN/A         49  46  89  E3      N/A
#POWELL BUTTE   N/A         50  46  86  E3      29.58F
#PRINEVILLE 3N  N/A         50  46  86  NE3     29.90F
#WARM SPRINGS   N/A         49  45  86  CALM    29.95F


ORZ509-242210-
EAST SLOPES OF OREGON CASCADES

CITY            SKY/WX      TMP DP  RH  WIND    PRES   REMARKS
#CAMP SHERMAN   N/A         47  45  93  CALM    29.94F
#LA PINE DOT    N/A         49  44  83  S6      N/A
#LA PINE 4NW    N/A         47  44  89  CALM    29.96F
#LAVA BUTTE DOT N/A         44  43  96  CALM    N/A
#SISTERS AIRPOR N/A         47  47  100 N3      29.91S
#SISTERS ODOT   N/A         47  N/A N/A CALM    N/A
#SISTERS 3N     N/A         48  45  89  N3      29.95F
#SUNRIVER       N/A         48  46  93  W1      29.82F
#SUNRIVER AP    N/A         46  44  93  CALM    29.90F
#TUMALO 3W      N/A         47  45  93  E3      29.82F
#WANOGA BUTTE D N/A         38  N/A N/A W6      N/A

$$

ORZ044-242210-
LOWER COLUMBIA BASIN...OREGON

CITY            SKY/WX      TMP DP  RH  WIND    PRES   REMARKS
HERMISTON       CLOUDY      58  50  75  N6      30.00F
#BOARDMAN SCHOOLN/A         53  47  80  CALM    29.99F
#BOARDMAN 3W    N/A         60  51  72  CALM    29.71F
#BOARDMAN 8SW   N/A         57  49  75  NE5     29.99F
#ECHO 8SW       N/A         56  46  69  CALM    29.97F
#IONE SCHOOL    N/A         55  43  64  CALM    29.98F
#IRRIGON 4NW    N/A         61  50  67  N1      N/A
#UMATILLA SCHOOLN/A         59  54  83  NE2     30.03S
#UMATILLA       N/A         60  50  69  VRB1    29.97F
$$

ORZ507-242210-
NORTHERN FOOTHILLS OF THE BLUES

CITY            SKY/WX      TMP DP  RH  WIND    PRES   REMARKS
PENDLETON AIRPT LGT RAIN    57  50  77  NE12    29.99F
#ADAMS 3WNW     N/A         54  47  77  NE8     29.99F
#ATHENA         N/A         53  47  80  N1      30.02F
#CAYUSE         N/A         55  48  77  N7      29.98F
#HELIX SCHOOL   N/A         53  46  77  N7      29.99F
#HELIX 3N       N/A         52  44  74  N12     29.97F
#HELIX 6SW      N/A         54  47  77  N10     29.98F
#HOLDMAN 5SE    N/A         56  48  74  NE3     29.99F
#HOLDMAN 6E     N/A         53  46  77  S8      29.81F
#M-F FERNDALE   N/A         59  50  72  CALM    30.01F
#M-F GROVE ELEM N/A         57  48  72  CALM    29.99F
#M-FREEWATER 5SEN/A         57  49  75  CALM    30.00F
#PENDLETON DNTN N/A         56  55  96  CALM    28.79F
#PDT AQUATIC CTRN/A         58  53  83  W2      29.97F
#PDT SUNRIDGE   N/A         57  52  83  CALM    29.99F
#PENDLETON 7NW  N/A         57  49  75  NE7     27.45F
#TUTUILLA       N/A         58  52  80  NE7     29.99F
#WESTON SCHOOL  N/A         53  46  77  NE2     29.96F

$$

ORZ508-242210-
SOUTHERN FOOTHILLS OF THE BLUES

CITY            SKY/WX      TMP DP  RH  WIND    PRES   REMARKS
LEXINGTON       PTCLDY      54  46  74  N14     29.99F
#AJAX           N/A         49  40  71  NE7     29.93S
#CONDON SCHOOL  N/A         49  46  89  CALM    29.94F
#CONDON 5W      N/A         47  44  89  NE5     29.95F
#HEPPNER EOC    N/A         56  47  72  N2      29.93F
#HEPPNER 4NE    N/A         50  46  86  NE3     29.97F
#LEXINGTON 2SE  N/A         56  47  72  N2      29.93F
#MIKKALO        N/A         51  44  77  NE1     29.98F
#OLEX 4N        N/A         53  46  77  NE6     29.98F
#RUGGS 5NE      N/A         54  44  69  NE1     30.14F
#RUGGS 2SW      N/A         51  45  80  N3      29.99F

$$

ORZ502-503-242210-
BLUE MOUNTAINS

CITY            SKY/WX      TMP DP  RH  WIND    PRES   REMARKS
MEACHAM         LGT RAIN    49  45  86  CALM    30.01F
#BATTLE MTN DOT N/A         47  47  100 S6      N/A
#HARDMAN 10S    N/A         45  42  89  SE3     30.03F
#HEPPNER 15SE   N/A         49  42  77  CALM    29.90F
#LADD CYN SMT   N/A         49  38  66  SE8     N/A
#LADD CREEK ODOTN/A         51  43  74  S5      N/A
#N POWDER DOT   N/A         50  46  86  SE13    N/A
#PIKES PEAK     N/A         48  44  86  NE3     27.99S
#TOLLGATE       N/A         42  40  93  SW1     29.97F
#TROY SCHOOL    N/A         54  49  83  CALM    29.89F
#UKIAH          N/A         53  46  77  CALM    30.01F
#WESTON 4E      N/A         50  44  80  E7      29.95F
$$

ORZ505-242210-
JOHN DAY BASIN

CITY            SKY/WX      TMP DP  RH  WIND    PRES   REMARKS
JOHN DAY        MOCLDY      53  47  80  CALM    29.99F
#JOHN DAY KJDY  N/A         55  49  80  CALM    30.15R
#DAYVILLE SCHOOLN/A         54  45  71  SE6     29.96F
#MT. VERNON 5SE N/A         48  46  93  NE2     29.95F
#WINLOCK        N/A         50  45  83  CALM    30.07F
$$

ORZ506-242210-
OCHOCO AND JOHN DAY HIGHLANDS

CITY            SKY/WX      TMP DP  RH  WIND    PRES   REMARKS
#HORSE RIDGE DO N/A         52  46  80  S15     N/A
#KEYES SMT DOT  N/A         44  43  96  E7      N/A
#PAULINA SCHOOL N/A         50  45  83  NE1     29.99F
#PINE MTN OBS   N/A         41  40  96  SE15G35 N/A    WCI 33
#PRAIRIE CITY   N/A         51  46  83  CALM    29.99F
#SENECA         N/A         49  N/A N/A SE2     N/A
#SENECA 9NW     N/A         46  45  96  CALM    29.98F
$$

ORZ049-242210-
GRANDE RONDE VALLEY

CITY            SKY/WX      TMP DP  RH  WIND    PRES   REMARKS
LA GRANDE       CLOUDY      54  39  57  S8      30.02F
#COVE           N/A         54  47  77  CALM    29.93F
#COVE SCHOOL    N/A         53  46  77  E2      30.00F
#COVE 6NW       N/A         52  45  77  S5      30.05F
#ELGIN 3N       N/A         53  47  80  CALM    29.76F
#ELGIN 1E       N/A         52  48  86  CALM    N/A
#IMBLER SCHOOL  N/A         63  35  35  SW3     29.84S
#ISLAND CITY 4N N/A         54  53  96  CALM    29.90F
#LADD CYN DOT   N/A         53  42  66  CALM    N/A
#UNION 1S       N/A         54  47  77  S6      29.91F
$$

ORZ050-242210-
WALLOWA COUNTY

CITY            SKY/WX      TMP DP  RH  WIND    PRES   REMARKS
JOSEPH AIRPORT  MOCLDY      52  39  61  NW7     30.04S
#ENTERPRISE HS  N/A         53  46  77  NW3     30.03F
#IMNAHA 10S     N/A         56  45  66  SW2     30.01F
#JOSEPH 3N      N/A         52  45  77  W6      30.03F
#JOSEPH 3W      N/A         48  43  83  CALM    29.87F
#LOSTINE        N/A         50  45  83  CALM    29.83S
#MT HOWARD 8000 N/A         36  34  92  SW7     30.08S
#PROMISE 1S     N/A         46  44  93  CALM    30.15F
#SHEEP RDG 7000 N/A         38  36  92  CALM    30.05F
#WALLOWA SCHOOL N/A         51  47  86  CALM    30.94F



$$




U.S. Dept. of Commerce
NOAA National Weather Service
1325 East West Highway
Silver Spring, MD 20910
E-mail: w-nws.webmaster@noaa.gov
Page last modified: May 16, 2007
NATIONAL WEATHER SERVICE: for Safety, for Work, for Fun - FOR LIFE